Temperature
8 8 8 9 9 10 10 11 11 11 11 11 11 10 10 9 9 9 9 9 9 9 9 9 8 7 6 6 6 6 5 5 4 3 3 2 1 1 0 -0 -1 -1 -1
7 7 7 8 8 9 9 10 10 10 10 10 10 10 9 9 9 9 9 9 9 9 9 8 7 6 5 5 4 4 4 4 3 3 2 1 0 -0 -1 -1 -1 -1 -1
6 6 7 7 7 8 8 9 9 9 9 9 9 9 8 8 8 8 8 8 8 7 7 6 5 4 4 3 3 3 3 2 2 1 0 -1 -1 -1 -1 -2 -2 -2 -2
5 6 6 6 6 7 7 7 8 8 8 8 8 7 7 7 7 7 7 7 6 5 4 3 3 2 2 2 2 2 2 1 0 -1 -1 -2 -2 -2 -3 -3 -4 -4 -4
4 5 5 5 5 5 6 6 6 6 6 6 6 6 6 6 6 5 5 4 4 3 2 1 1 2 2 2 1 1 -0 -1 -1 -2 -3 -4 -4 -4 -5 -6 -6 -6 -5
3 3 3 3 4 4 4 4 5 5 5 5 5 5 4 4 3 3 2 2 1 1 1 1 1 1 1 0 -0 -1 -1 -2 -2 -4 -5 -5 -6 -6 -7 -7 -8 -8 -7
2 2 2 2 2 2 3 3 3 3 3 3 3 2 2 1 1 1 0 0 0 1 1 1 0 -0 -1 -1 -2 -2 -2 -3 -4 -5 -6 -7 -7 -7 -8 -8 -8 -8 -8
1 1 1 1 1 1 1 1 1 1 1 1 0 -0 -0 -1 -1 -0 -0 0 0 0 -0 -1 -1 -2 -2 -2 -2 -3 -3 -4 -5 -6 -7 -7 -7 -7 -8 -8 -8 -8 -8
-0 -0 -0 -0 -0 -0 -0 -0 -0 -0 -1 -1 -1 -1 -1 -1 -1 -1 -1 -0 -1 -1 -2 -2 -2 -2 -3 -3 -4 -4 -5 -6 -7 -7 -7 -7 -7 -7 -8 -8 -8 -8 -8
-0 -1 -1 -1 -0 -1 -1 -1 -1 -1 -1 -1 -1 -1 -1 -1 -2 -2 -2 -2 -2 -2 -2 -3 -3 -3 -4 -5 -6 -7 -7 -7 -8 -7 -7 -7 -7 -7 -7 -8 -8 -8 -8
-0 -0 -0 -0 -0 -1 -1 -1 -1 -1 -1 -1 -1 -2 -2 -2 -3 -2 -3 -3 -3 -3 -4 -4 -4 -5 -6 -7 -8 -8 -8 -8 -8 -7 -7 -7 -7 -7 -7 -7 -8 -8 -8
0 0 0 -0 -0 -1 -1 -1 -1 -1 -1 -1 -2 -2 -2 -3 -3 -3 -3 -4 -4 -5 -5 -6 -6 -7 -7 -8 -8 -8 -8 -8 -8 -8 -7 -7 -7 -7 -7 -7 -7 -7 -7
1 0 0 -0 -0 -1 -1 -1 -1 -1 -1 -2 -2 -3 -3 -4 -4 -4 -5 -5 -5 -6 -7 -7 -7 -7 -8 -8 -8 -8 -8 -8 -8 -8 -8 -7 -7 -7 -7 -7 -7 -7 -6
1 0 0 -0 -0 -1 -1 -1 -1 -2 -2 -2 -3 -3 -4 -4 -5 -6 -6 -6 -7 -7 -7 -8 -8 -8 -8 -8 -8 -8 -8 -8 -8 -8 -8 -8 -7 -7 -7 -7 -7 -7 -6
0 0 -0 -0 -1 -1 -1 -2 -2 -2 -3 -3 -4 -4 -5 -6 -6 -7 -7 -8 -8 -9 -8 -8 -8 -9 -9 -9 -9 -9 -8 -8 -8 -8 -8 -8 -8 -7 -7 -7 -7 -7 -7
0 -0 -0 -1 -1 -1 -2 -2 -2 -3 -3 -4 -4 -5 -6 -6 -7 -7 -8 -8 -8 -9 -9 -9 -9 -9 -9 -9 -9 -9 -9 -9 -8 -8 -8 -8 -8 -8 -8 -7 -7 -7 -7
-0 -0 -1 -1 -1 -2 -2 -3 -3 -4 -4 -5 -5 -6 -6 -7 -8 -8 -8 -9 -9 -9 -9 -9 -9 -9 -9 -9 -9 -8 -8 -8 -8 -8 -8 -8 -8 -8 -8 -8 -7 -7 -7
-0 -1 -1 -1 -2 -2 -3 -3 -4 -4 -5 -6 -6 -7 -7 -8 -8 -9 -9 -9 -9 -9 -9 -9 -9 -9 -9 -9 -9 -9 -8 -8 -8 -8 -8 -8 -8 -8 -8 -8 -8 -8 -8
-1 -1 -1 -2 -2 -2 -3 -3 -4 -5 -5 -6 -7 -7 -8 -8 -9 -9 -9 -9 -9 -9 -9 -9 -9 -9 -9 -9 -9 -8 -8 -8 -8 -8 -8 -8 -8 -8 -8 -8 -8 -8 -8
-1 -1 -1 -2 -2 -3 -3 -4 -5 -5 -6 -7 -7 -8 -8 -8 -9 -9 -9 -9 -9 -9 -9 -9 -9 -9 -9 -9 -8 -8 -8 -8 -8 -8 -8 -8 -8 -8 -8 -8 -8 -8 -8
-1 -1 -2 -2 -3 -3 -4 -4 -5 -6 -6 -7 -8 -8 -8 -9 -9 -9 -9 -9 -9 -9 -9 -9 -9 -9 -9 -9 -8 -8 -8 -8 -8 -8 -8 -8 -9 -9 -9 -9 -8 -8 -8
-1 -2 -2 -2 -3 -3 -4 -5 -5 -6 -7 -7 -8 -8 -9 -9 -9 -9 -9 -9 -9 -9 -9 -9 -8 -8 -8 -8 -8 -8 -8 -8 -8 -8 -8 -9 -9 -9 -9 -9 -9 -8 -8
-2 -2 -2 -3 -3 -4 -4 -5 -6 -6 -7 -8 -8 -8 -9 -9 -9 -9 -9 -9 -9 -9 -9 -8 -8 -8 -8 -8 -8 -8 -8 -8 -8 -8 -9 -9 -9 -9 -9 -9 -8 -8 -8
-2 -2 -2 -3 -3 -4 -5 -5 -6 -7 -7 -8 -8 -8 -9 -9 -9 -9 -9 -9 -9 -8 -8 -8 -8 -8 -8 -8 -8 -8 -8 -8 -8 -8 -9 -9 -9 -9 -9 -9 -9 -9 -9
-2 -2 -3 -3 -4 -4 -5 -6 -6 -7 -7 -8 -8 -8 -8 -9 -9 -9 -9 -8 -8 -8 -8 -8 -8 -8 -8 -8 -8 -8 -8 -8 -8 -9 -9 -9 -9 -9 -9 -9 -9 -8 -8
-2 -3 -3 -3 -4 -4 -5 -6 -6 -7 -7 -8 -8 -8 -8 -8 -8 -8 -8 -8 -8 -8 -8 -8 -8 -8 -7 -7 -8 -8 -8 -8 -8 -8 -9 -9 -9 -9 -8 -8 -8 -8 -8
Wind_Speed
12 11 11 10 10 9 8 8 8 7 7 7 8 8 10 10 10 10 10 11 11 10 10 11 10 9 7 6 6 6 5 4 3 2 2 3 4 6 7 10 11 12 13
12 11 10 10 9 8 7 6 5 4 3 4 5 6 8 9 10 11 12 12 12 13 12 12 12 9 9 7 6 6 5 3 3 3 3 4 6 7 7 9 11 12 14
12 11 10 10 9 8 7 5 3 2 1 2 3 5 6 7 9 9 10 11 10 11 11 12 11 11 9 7 6 5 4 3 2 3 4 4 5 6 8 9 10 11 13
11 11 11 11 10 8 7 6 5 4 5 5 5 6 6 6 7 9 10 11 11 11 10 10 10 9 9 8 6 5 4 4 4 4 5 6 6 7 7 8 9 9 10
10 11 11 10 10 10 9 9 9 9 9 9 10 10 9 8 8 11 11 12 13 13 11 10 9 10 9 6 4 4 5 4 4 5 6 6 7 6 7 7 9 10 11
10 10 10 10 11 11 11 11 11 11 11 11 11 11 11 9 15 17 14 12 12 12 11 9 9 8 7 6 4 5 7 6 6 6 7 8 8 8 7 8 9 10 9
9 9 10 10 11 11 11 11 11 11 12 12 12 12 13 15 19 19 18 13 12 10 9 8 6 5 5 2 1 3 6 7 8 8 9 9 9 8 9 10 11 12 13
9 9 9 9 10 10 11 11 11 10 11 11 12 12 13 15 20 20 19 13 11 9 8 6 5 3 2 2 3 4 5 6 6 7 8 9 9 9 10 11 12 13 15
9 8 8 8 9 10 10 10 10 10 11 11 11 12 13 14 17 16 14 8 8 8 6 4 2 1 2 4 4 5 6 6 7 9 12 13 15 16 14 10 10 11 12
8 8 8 8 9 10 10 10 9 10 10 10 11 10 10 10 12 12 10 6 6 5 3 2 1 2 3 4 4 5 7 7 7 8 9 10 11 13 13 11 9 9 9
7 8 9 9 9 9 9 9 9 9 10 10 10 8 7 7 9 9 6 4 3 2 1 1 1 3 5 5 5 5 7 9 9 9 8 9 8 7 7 8 8 8 10
7 8 8 8 7 7 9 8 8 8 8 8 7 7 6 5 5 6 6 4 3 1 1 2 2 4 6 6 6 8 10 10 7 7 8 8 7 7 7 7 10 12 14
7 8 8 8 7 7 7 7 6 5 5 5 4 4 4 4 4 6 5 4 4 3 3 4 4 5 6 5 6 8 7 5 6 7 7 7 7 8 8 8 9 11 14
8 7 7 7 7 7 5 5 4 4 3 3 3 3 2 2 2 1 2 2 3 3 3 2 3 4 5 6 6 5 5 5 6 7 8 8 8 8 8 8 8 9 9
7 6 6 6 6 6 6 5 5 5 4 3 3 2 1 1 2 4 4 4 4 4 4 4 4 4 4 4 4 4 5 5 6 6 7 8 8 8 8 7 7 7 8
7 6 5 4 4 4 5 5 8 6 7 5 3 2 1 2 3 4 5 5 5 6 5 5 4 4 4 4 5 5 5 5 5 6 7 8 8 8 9 8 8 9 10
6 6 4 4 4 3 3 2 2 3 5 5 5 4 3 3 4 4 5 5 5 4 4 4 4 4 5 5 5 5 6 6 6 6 7 8 8 8 9 9 9 10 11
6 5 4 4 3 3 2 1 1 1 2 1 2 4 4 4 4 4 5 5 4 4 4 4 5 5 5 5 6 6 6 7 6 7 7 8 8 8 9 10 10 11 12
6 5 4 4 3 3 2 1 1 1 2 2 3 2 3 5 4 4 4 4 4 5 5 5 5 5 6 6 6 7 7 8 8 8 8 9 8 9 10 10 11 15 15
5 6 5 4 3 3 2 2 2 2 2 3 3 4 4 4 4 4 4 4 5 5 5 6 6 6 7 7 7 7 8 8 9 9 9 9 9 9 11 13 12 13 13
5 6 7 4 3 3 3 2 2 2 3 3 4 4 7 6 5 6 5 5 5 6 6 7 7 7 7 7 7 8 10 9 9 9 10 10 10 10 11 11 13 14 14
5 5 5 4 4 3 3 2 2 3 3 4 4 5 6 5 5 6 6 6 6 6 7 7 8 8 8 8 8 9 9 10 10 10 10 10 10 11 12 12 13 14 15
6 6 5 4 3 4 3 2 2 3 4 4 5 5 5 5 6 6 7 7 7 7 7 7 8 8 9 9 10 9 10 11 11 11 11 12 12 12 12 14 16 18 17
6 6 5 5 4 4 3 3 3 3 4 4 5 5 6 6 7 8 8 7 7 8 9 9 9 11 14 13 13 13 15 16 15 13 15 14 14 14 14 16 17 19 19
6 6 5 5 4 4 3 3 3 4 4 5 5 6 6 7 7 8 8 7 9 9 10 11 11 12 14 16 16 17 20 23 23 20 16 14 17 17 18 19 18 19 19
6 6 5 4 4 4 3 3 4 4 4 5 5 6 7 7 7 8 8 8 8 9 10 10 13 15 17 17 19 21 23 24 25 26 20 14 16 17 18 17 21 20 21
Wind_Direction
333 325 318 314 310 302 289 280 271 259 245 232 223 211 203 196 190 187 185 179 177 169 164 159 150 141 131 120 110 104 98 105 148 153 178 199 220 240 256 266 274 279 281
336 332 329 324 321 316 308 301 290 272 250 229 208 194 188 183 180 179 177 173 171 166 160 151 144 136 125 120 115 113 118 122 149 190 208 212 234 253 268 275 279 281 282
345 344 344 343 340 337 336 338 343 358 69 119 152 160 164 168 169 168 164 159 155 150 146 142 137 132 126 122 121 124 127 136 159 211 237 234 245 254 270 274 277 279 282
355 1 4 2 2 6 12 23 36 53 76 89 96 105 117 129 136 137 134 130 124 118 118 119 120 123 126 129 129 137 143 161 189 223 245 251 253 261 267 277 284 287 288
7 14 15 14 21 30 37 44 53 61 69 79 85 88 91 98 110 115 115 115 111 104 98 97 100 110 125 131 139 155 170 192 213 233 248 257 261 265 270 282 288 294 293
20 23 25 30 36 42 47 54 59 64 71 76 81 87 89 95 109 110 110 106 105 104 102 97 98 99 113 127 159 190 202 215 229 241 255 261 270 277 283 286 292 294 297
31 32 35 41 46 47 54 60 64 69 74 77 80 84 91 100 104 103 101 98 97 98 101 104 104 107 104 112 215 253 245 249 251 258 265 271 280 285 291 289 285 284 283
40 40 43 50 56 58 61 63 64 68 73 77 81 83 85 89 93 94 94 90 92 94 97 103 111 120 144 201 223 238 247 250 256 264 271 278 280 283 278 278 282 283 282
43 44 49 58 64 65 65 64 65 70 71 72 76 79 83 84 88 92 94 94 99 100 105 116 130 166 231 254 251 254 263 265 260 267 277 280 281 281 282 284 281 279 283
45 50 56 63 68 70 70 69 69 73 75 76 76 77 85 92 97 100 101 104 109 115 125 140 202 295 289 285 279 273 277 287 292 286 280 277 277 277 274 265 263 266 273
57 60 61 65 71 76 77 76 79 82 83 82 82 81 85 101 111 107 100 93 99 105 96 5 344 316 306 308 303 287 291 297 295 293 290 287 282 275 268 261 256 251 256
75 71 67 68 73 80 86 85 87 93 93 93 91 87 77 81 95 99 89 78 63 33 350 331 323 313 313 319 308 303 299 296 288 286 285 285 287 287 285 279 270 260 254
93 85 82 81 78 81 86 90 89 88 90 94 95 95 88 74 73 70 60 45 20 342 333 328 326 331 320 306 303 302 297 283 279 280 282 286 289 289 288 283 275 266 262
108 100 95 91 87 82 79 78 82 84 91 99 100 102 100 96 73 38 11 354 338 325 313 312 309 311 298 294 295 286 278 279 284 283 286 290 292 286 280 281 287 293 290
117 110 104 97 98 91 81 71 72 63 53 70 77 72 50 39 12 352 335 328 327 326 311 292 295 299 296 293 290 287 280 272 272 277 283 286 286 286 285 286 283 284 279
133 130 123 118 111 107 105 95 73 73 77 72 60 24 346 321 328 329 326 326 322 323 299 288 294 296 299 302 300 295 289 279 279 280 279 279 282 285 287 286 280 278 280
149 144 139 138 135 131 129 132 130 92 72 56 36 13 344 328 323 322 323 325 314 307 284 285 288 290 291 290 289 288 287 285 283 277 275 277 278 279 281 283 284 282 282
152 147 150 151 153 156 160 170 220 261 268 278 3 349 337 324 318 319 325 308 284 277 279 280 282 285 286 287 287 287 288 289 283 278 277 275 273 274 277 280 281 282 285
159 157 157 155 157 160 161 171 196 243 275 288 291 291 313 306 293 299 306 291 292 288 283 280 281 282 282 282 282 282 282 283 282 281 278 275 273 272 274 277 280 283 284
167 161 160 162 165 170 179 195 218 246 266 279 289 301 305 295 291 295 294 288 284 283 283 282 282 281 281 280 280 280 281 281 281 278 277 277 275 272 274 277 279 281 282
162 164 169 171 178 183 192 208 229 254 273 285 290 299 303 302 295 295 293 287 283 282 283 283 282 282 278 276 276 276 277 278 279 278 278 277 277 275 275 276 278 280 281
165 167 175 181 182 187 195 208 234 260 278 287 295 297 300 293 288 288 289 287 284 280 278 279 279 277 275 273 274 275 275 275 276 276 276 277 277 277 278 278 280 282 283
168 170 176 182 185 190 193 216 243 265 279 288 293 295 295 290 289 288 287 287 286 282 279 275 274 274 272 268 265 263 266 270 273 276 279 281 281 280 280 280 281 284 284
173 177 181 183 187 197 210 228 248 266 278 285 288 288 289 289 289 288 286 285 284 281 278 274 271 271 274 275 273 268 263 266 271 272 272 272 275 277 277 277 280 282 284
177 182 186 188 193 202 215 233 251 263 273 278 283 286 287 288 288 287 286 283 283 280 279 279 275 275 276 275 275 274 275 278 280 278 274 273 274 274 277 279 282 285 287
181 185 187 188 195 204 218 235 250 262 269 275 279 281 284 285 286 287 287 284 284 284 285 284 280 281 283 283 282 282 284 287 289 290 288 283 280 279 281 283 287 289 291
Height
1448 1446 1444 1442 1441 1440 1439 1439 1439 1440 1440 1441 1442 1443 1444 1446 1447 1449 1451 1453 1455 1457 1460 1462 1464 1467 1469 1472 1475 1477 1479 1482 1484 1485 1486 1486 1487 1486 1485 1484 1483 1480 1478
1445 1442 1440 1438 1437 1436 1435 1435 1434 1435 1435 1436 1437 1437 1438 1440 1441 1443 1444 1446 1449 1451 1453 1455 1457 1461 1464 1467 1470 1473 1474 1476 1478 1479 1479 1480 1480 1480 1479 1477 1475 1473 1471
1442 1440 1437 1435 1433 1432 1431 1431 1431 1431 1431 1432 1432 1433 1434 1435 1437 1438 1439 1441 1443 1445 1447 1450 1453 1457 1460 1463 1466 1469 1470 1471 1472 1473 1473 1474 1474 1473 1471 1470 1468 1466 1464
1440 1437 1435 1432 1431 1429 1428 1427 1428 1428 1428 1429 1429 1430 1431 1432 1433 1434 1435 1436 1439 1441 1444 1448 1452 1455 1459 1461 1463 1465 1466 1467 1467 1468 1468 1468 1467 1466 1464 1463 1461 1459 1457
1439 1436 1433 1431 1429 1428 1427 1426 1426 1426 1427 1427 1427 1428 1429 1430 1430 1431 1433 1434 1437 1440 1443 1448 1451 1454 1457 1459 1460 1461 1462 1462 1463 1463 1463 1462 1461 1460 1459 1457 1455 1453 1450
1438 1435 1433 1431 1429 1428 1427 1426 1426 1426 1426 1426 1427 1427 1428 1429 1430 1431 1433 1435 1438 1441 1445 1448 1451 1453 1455 1456 1457 1457 1458 1458 1458 1458 1458 1457 1456 1455 1454 1452 1450 1447 1444
1438 1436 1434 1432 1430 1429 1428 1428 1427 1427 1427 1427 1427 1428 1429 1430 1431 1433 1436 1438 1441 1443 1446 1448 1450 1451 1452 1452 1453 1453 1453 1453 1453 1453 1453 1452 1451 1450 1448 1446 1445 1443 1440
1440 1437 1435 1433 1432 1431 1430 1430 1429 1429 1429 1430 1431 1432 1433 1434 1436 1437 1439 1441 1442 1444 1446 1447 1448 1449 1449 1449 1449 1449 1449 1449 1448 1447 1447 1446 1445 1444 1443 1442 1440 1437 1435
1442 1440 1438 1437 1436 1435 1434 1434 1434 1434 1434 1435 1436 1437 1437 1438 1439 1441 1442 1443 1443 1444 1445 1446 1447 1447 1446 1446 1446 1445 1445 1445 1443 1442 1441 1440 1439 1439 1438 1437 1435 1432 1429
1446 1444 1443 1441 1440 1439 1439 1439 1439 1439 1439 1440 1440 1441 1442 1442 1442 1443 1443 1443 1444 1444 1445 1445 1445 1444 1444 1443 1443 1442 1442 1441 1440 1438 1437 1435 1434 1433 1432 1431 1429 1427 1424
1450 1449 1447 1446 1445 1445 1444 1444 1444 1445 1445 1445 1445 1445 1445 1445 1445 1445 1445 1445 1445 1444 1444 1443 1443 1442 1441 1440 1440 1439 1438 1437 1435 1434 1433 1432 1430 1429 1428 1426 1424 1422 1419
1454 1453 1452 1451 1450 1450 1449 1449 1449 1449 1449 1448 1448 1448 1448 1447 1447 1446 1445 1445 1444 1443 1442 1441 1440 1439 1438 1437 1436 1435 1434 1433 1432 1430 1429 1428 1427 1425 1423 1421 1419 1416 1413
1457 1456 1455 1454 1454 1454 1453 1453 1453 1452 1452 1451 1450 1450 1449 1448 1447 1446 1445 1444 1443 1442 1441 1439 1438 1436 1435 1434 1433 1431 1430 1429 1428 1427 1426 1424 1423 1421 1418 1416 1414 1411 1408
1459 1458 1458 1457 1457 1456 1456 1455 1455 1454 1453 1452 1451 1450 1449 1448 1447 1446 1444 1443 1441 1440 1438 1437 1435 1434 1432 1431 1429 1428 1427 1426 1425 1424 1422 1421 1419 1416 1414 1411 1408 1405 1401
1460 1460 1459 1459 1459 1458 1457 1457 1456 1455 1454 1453 1452 1451 1449 1448 1446 1445 1443 1441 1440 1438 1436 1434 1433 1431 1430 1429 1427 1426 1425 1424 1422 1421 1419 1417 1414 1411 1409 1406 1403 1399 1395
1460 1460 1460 1460 1459 1459 1458 1457 1456 1455 1454 1452 1451 1449 1447 1446 1444 1442 1441 1439 1437 1436 1434 1433 1431 1430 1428 1427 1425 1424 1423 1421 1419 1417 1415 1412 1409 1406 1403 1401 1397 1393 1388
1460 1460 1460 1460 1459 1459 1458 1457 1456 1454 1453 1451 1449 1447 1445 1443 1442 1440 1438 1436 1435 1433 1432 1430 1429 1427 1425 1424 1422 1421 1419 1418 1416 1413 1410 1408 1404 1401 1397 1394 1391 1387 1382
1459 1459 1459 1459 1459 1458 1457 1456 1454 1453 1451 1449 1447 1445 1443 1441 1439 1437 1435 1434 1432 1430 1429 1427 1426 1424 1422 1421 1419 1417 1415 1414 1411 1409 1406 1402 1399 1395 1392 1388 1384 1380 1375
1458 1458 1458 1458 1457 1457 1455 1454 1452 1451 1449 1447 1444 1442 1440 1438 1436 1434 1432 1431 1429 1427 1426 1424 1422 1421 1419 1417 1415 1413 1411 1409 1406 1403 1400 1397 1393 1389 1385 1382 1378 1373 1369
1456 1457 1457 1456 1456 1455 1453 1452 1450 1448 1446 1444 1442 1439 1437 1435 1433 1431 1429 1427 1426 1424 1422 1421 1419 1417 1415 1413 1411 1408 1406 1404 1401 1398 1394 1391 1387 1383 1379 1375 1371 1366 1361
1455 1455 1455 1454 1453 1452 1451 1449 1447 1445 1443 1441 1439 1436 1434 1432 1430 1428 1426 1424 1422 1420 1418 1416 1415 1413 1411 1408 1406 1403 1401 1398 1395 1392 1388 1384 1380 1376 1372 1368 1363 1359 1353
1452 1453 1452 1452 1451 1450 1448 1447 1445 1442 1440 1438 1436 1433 1431 1429 1427 1425 1423 1420 1418 1416 1414 1412 1410 1408 1406 1403 1401 1398 1395 1392 1389 1385 1381 1377 1373 1369 1365 1360 1355 1351 1345
1450 1450 1450 1449 1448 1447 1445 1444 1442 1440 1437 1435 1433 1430 1428 1426 1424 1421 1419 1417 1415 1412 1410 1408 1405 1403 1401 1398 1395 1392 1389 1386 1383 1379 1374 1370 1366 1362 1357 1352 1348 1342 1337
1447 1447 1447 1446 1445 1444 1443 1441 1439 1437 1435 1433 1430 1428 1425 1423 1421 1418 1416 1413 1411 1408 1406 1403 1401 1398 1396 1393 1390 1387 1383 1380 1376 1372 1368 1363 1358 1354 1349 1344 1339 1334 1330
1444 1444 1444 1443 1443 1441 1440 1438 1436 1434 1432 1430 1428 1425 1423 1420 1418 1415 1412 1410 1407 1405 1402 1399 1396 1393 1390 1387 1384 1381 1378 1374 1370 1366 1361 1356 1351 1347 1342 1337 1332 1327 1322
1440 1441 1441 1440 1439 1438 1437 1435 1433 1432 1429 1427 1425 1422 1420 1417 1415 1412 1409 1406 1403 1401 1398 1395 1392 1389 1385 1382 1379 1375 1372 1368 1364 1360 1356 1351 1346 1341 1336 1330 1325 1320 1314